TimeCST,TemperatureF,Dew PointF,Humidity,Sea Level PressureIn,VisibilityMPH,Wind Direction,Wind SpeedMPH,Gust SpeedMPH,PrecipitationIn,Events,Conditions,WindDirDegrees,DateUTC
12:15 AM,20.1,18.9,95,29.94,4.0,SSE,16.1,-,N/A,,Overcast,160,2014-02-08 06:15:00
12:35 AM,19.4,18.0,94,29.93,7.0,SSE,13.8,-,N/A,,Overcast,160,2014-02-08 06:35:00
12:55 AM,17.6,15.8,93,29.94,10.0,SSE,9.2,-,N/A,,Scattered Clouds,160,2014-02-08 06:55:00
1:15 AM,16.3,14.5,93,29.94,10.0,SSE,6.9,-,N/A,,Clear,150,2014-02-08 07:15:00
1:35 AM,14.9,13.1,93,29.94,7.0,SE,5.8,-,N/A,,Clear,140,2014-02-08 07:35:00
1:55 AM,14.4,12.2,91,29.94,7.0,Calm,Calm,-,N/A,,Clear,0,2014-02-08 07:55:00
2:15 AM,14.5,12.6,92,29.94,7.0,Calm,Calm,-,N/A,,Clear,0,2014-02-08 08:15:00
2:35 AM,13.6,11.5,91,29.94,5.0,Calm,Calm,-,N/A,,Clear,0,2014-02-08 08:35:00
2:55 AM,10.9,8.4,90,29.94,1.5,Calm,Calm,-,N/A,,Unknown,0,2014-02-08 08:55:00
3:15 AM,11.8,9.5,90,29.94,0.5,Calm,Calm,-,N/A,,Unknown,0,2014-02-08 09:15:00
3:35 AM,9.9,7.0,88,29.93,0.2,Calm,Calm,-,N/A,,Overcast,0,2014-02-08 09:35:00
3:55 AM,11.7,9.1,90,29.93,0.2,Calm,Calm,-,N/A,,Overcast,0,2014-02-08 09:55:00
4:15 AM,9.1,5.9,87,29.93,0.2,SE,3.5,-,N/A,,Mostly Cloudy,130,2014-02-08 10:15:00
4:35 AM,6.4,3.4,87,29.93,0.2,South,3.5,-,N/A,,Unknown,170,2014-02-08 10:35:00
4:55 AM,5.9,2.8,87,29.94,0.2,Calm,Calm,-,N/A,,Overcast,0,2014-02-08 10:55:00
5:15 AM,6.6,3.7,88,29.94,0.2,SW,4.6,-,N/A,,Overcast,230,2014-02-08 11:15:00
5:35 AM,7.9,5.2,89,29.94,2.0,West,3.5,-,N/A,,Overcast,270,2014-02-08 11:35:00
5:55 AM,8.6,5.9,89,29.94,0.2,West,3.5,-,N/A,,Overcast,270,2014-02-08 11:55:00
6:15 AM,8.6,5.9,89,29.93,0.2,Calm,Calm,-,N/A,,Overcast,0,2014-02-08 12:15:00
6:35 AM,8.6,5.9,89,29.94,0.2,Calm,Calm,-,N/A,,Overcast,0,2014-02-08 12:35:00
6:55 AM,8.6,5.9,89,29.93,0.2,Calm,Calm,-,N/A,,Overcast,0,2014-02-08 12:55:00
7:15 AM,8.6,5.7,88,29.94,0.2,Calm,Calm,-,N/A,,Overcast,0,2014-02-08 13:15:00
7:35 AM,8.6,5.9,89,29.94,0.2,Calm,Calm,-,N/A,,Overcast,0,2014-02-08 13:35:00
7:55 AM,9.3,6.6,89,29.94,0.5,Calm,Calm,-,N/A,,Mostly Cloudy,0,2014-02-08 13:55:00
8:15 AM,10.4,7.7,89,29.96,5.0,Calm,Calm,-,N/A,,Clear,0,2014-02-08 14:15:00
8:35 AM,11.1,8.4,89,29.96,5.0,Calm,Calm,-,N/A,,Clear,0,2014-02-08 14:35:00
8:55 AM,11.1,8.4,89,29.95,7.0,Calm,Calm,-,N/A,,Clear,0,2014-02-08 14:55:00
9:15 AM,11.3,8.6,89,29.96,7.0,Calm,Calm,-,N/A,,Clear,0,2014-02-08 15:15:00
9:35 AM,12.2,9.5,89,29.96,7.0,Calm,Calm,-,N/A,,Clear,0,2014-02-08 15:35:00
9:55 AM,14.4,11.8,90,29.97,7.0,Calm,Calm,-,N/A,,Clear,0,2014-02-08 15:55:00
10:15 AM,17.4,15.8,93,29.97,7.0,Calm,Calm,-,N/A,,Clear,0,2014-02-08 16:15:00
10:35 AM,21.4,20.1,95,29.98,10.0,North,9.2,-,N/A,,Clear,360,2014-02-08 16:35:00
10:55 AM,22.5,21.2,95,29.96,10.0,Calm,Calm,-,N/A,,Clear,0,2014-02-08 16:55:00
11:15 AM,23.4,22.1,95,29.96,10.0,NW,3.5,-,N/A,,Clear,310,2014-02-08 17:15:00
11:35 AM,24.4,23.0,94,29.96,10.0,Calm,Calm,-,N/A,,Clear,0,2014-02-08 17:35:00
11:55 AM,25.3,23.7,94,29.96,10.0,NE,4.6,-,N/A,,Clear,40,2014-02-08 17:55:00
12:15 PM,27.0,25.3,94,29.96,10.0,North,6.9,-,0.03,,Clear,360,2014-02-08 18:15:00
12:35 PM,28.0,22.8,81,29.96,10.0,Calm,Calm,-,0.03,,Clear,0,2014-02-08 18:35:00
12:55 PM,29.3,22.6,76,29.93,10.0,Calm,Calm,-,0.03,,Clear,0,2014-02-08 18:55:00
1:15 PM,30.4,23.4,75,29.92,10.0,Calm,Calm,-,N/A,,Clear,0,2014-02-08 19:15:00
1:35 PM,31.6,23.5,72,29.92,10.0,Calm,Calm,-,N/A,,Clear,0,2014-02-08 19:35:00
1:55 PM,31.6,25.0,76,29.89,10.0,SSE,4.6,-,N/A,,Clear,150,2014-02-08 19:55:00
2:15 PM,32.9,25.5,74,29.89,10.0,SSE,6.9,-,N/A,,Clear,160,2014-02-08 20:15:00
2:35 PM,33.1,27.3,79,29.89,10.0,SSE,8.1,-,N/A,,Clear,160,2014-02-08 20:35:00
2:55 PM,33.8,27.9,79,29.88,10.0,SE,8.1,-,N/A,,Clear,140,2014-02-08 20:55:00
3:15 PM,32.9,27.1,79,29.88,10.0,South,9.2,-,N/A,,Clear,170,2014-02-08 21:15:00
3:35 PM,32.2,26.8,80,29.89,10.0,South,8.1,-,N/A,,Clear,170,2014-02-08 21:35:00
3:55 PM,32.4,26.6,79,29.88,10.0,SSE,8.1,-,N/A,,Clear,150,2014-02-08 21:55:00
4:15 PM,32.4,26.8,80,29.89,10.0,South,8.1,-,N/A,,Clear,170,2014-02-08 22:15:00
4:35 PM,33.4,27.3,78,29.89,10.0,South,5.8,-,N/A,,Clear,170,2014-02-08 22:35:00
4:55 PM,33.8,27.7,78,29.90,10.0,South,5.8,-,N/A,,Clear,180,2014-02-08 22:55:00
5:15 PM,33.4,28.4,82,29.89,10.0,SSE,5.8,-,N/A,,Clear,160,2014-02-08 23:15:00
5:35 PM,32.7,28.2,83,29.90,10.0,SSE,4.6,-,N/A,,Clear,160,2014-02-08 23:35:00
5:55 PM,33.3,28.4,82,29.91,10.0,Calm,Calm,-,N/A,,Clear,0,2014-02-08 23:55:00
6:15 PM,32.0,28.0,85,29.91,10.0,SE,4.6,-,N/A,,Clear,130,2014-02-09 00:15:00
6:35 PM,31.5,27.3,85,29.92,10.0,SE,5.8,-,N/A,,Clear,140,2014-02-09 00:35:00
6:55 PM,30.0,26.6,87,29.93,10.0,SE,5.8,-,N/A,,Clear,140,2014-02-09 00:55:00
7:15 PM,29.3,26.4,89,29.94,10.0,SE,8.1,-,N/A,,Clear,140,2014-02-09 01:15:00
7:35 PM,28.2,25.3,89,29.93,10.0,SSE,9.2,-,N/A,,Clear,160,2014-02-09 01:35:00
7:55 PM,27.7,25.3,91,29.93,7.0,SSE,9.2,-,N/A,,Clear,160,2014-02-09 01:55:00
8:15 PM,26.6,24.4,92,29.93,7.0,South,6.9,-,N/A,,Clear,170,2014-02-09 02:15:00
8:35 PM,27.3,25.2,92,29.93,7.0,South,6.9,-,N/A,,Clear,170,2014-02-09 02:35:00
8:55 PM,27.9,25.7,92,29.93,7.0,South,8.1,-,N/A,,Clear,170,2014-02-09 02:55:00
9:15 PM,27.1,24.8,91,29.93,7.0,SSE,6.9,-,N/A,,Clear,150,2014-02-09 03:15:00
9:35 PM,25.3,23.4,92,29.94,7.0,SSE,8.1,-,N/A,,Clear,160,2014-02-09 03:35:00
9:55 PM,26.6,25.2,94,29.94,7.0,SSE,5.8,-,N/A,,Clear,160,2014-02-09 03:55:00
10:15 PM,25.7,24.3,94,29.94,5.0,South,6.9,-,N/A,,Clear,180,2014-02-09 04:15:00
10:35 PM,25.7,24.1,94,29.96,7.0,ENE,5.8,-,N/A,,Clear,70,2014-02-09 04:35:00
10:55 PM,25.5,23.7,93,29.96,5.0,ENE,8.1,-,N/A,,Clear,70,2014-02-09 04:55:00
11:15 PM,23.7,22.3,94,29.96,5.0,NE,6.9,-,N/A,,Clear,50,2014-02-09 05:15:00
11:35 PM,23.4,21.9,94,29.96,5.0,ENE,6.9,-,N/A,,Clear,60,2014-02-09 05:35:00
11:55 PM,22.6,21.2,94,29.95,5.0,ENE,6.9,-,N/A,,Clear,70,2014-02-09 05:55:00